Regional Weather Roundup
Issued by NWS Sioux Falls, SD

Home | Current Version | Previous Version | Text Only | Print | Product List | Glossary On
Versions: 1 2 3 4 5 6 7 8 9 10 11 12 13 14 15 16 17 18 19 20 21 22 23 24 25 26 27 28 29 30 31 32 33 34 35 36 37 38 39 40 41 42 43 44 45 46 47 48 49 50
000
ASUS43 KFSD 271910
RWRFSD

WEATHER ROUNDUP FOR SE SOUTH DAKOTA/SW MINNESOTA/NW IOWA
NATIONAL WEATHER SERVICE SIOUX FALLS SD
200 PM CDT SAT MAY 27 2017

NOTE: "FAIR" INDICATES FEW OR NO CLOUDS BELOW 12,000 FEET WITH NO
SIGNIFICANT WEATHER AND OR OBSTRUCTIONS TO VISIBILITY.


SDZ038>040-050-052>070-272000-
SOUTHEAST SOUTH DAKOTA

CITY           SKY/WX    TMP DP  RH WIND       PRES   REMARKS
BROOKINGS      CLOUDY    68  48  48 SW9       29.93F
CHAMBERLAIN    MOSUNNY   66  49  53 SW7       29.97F
HURON          CLOUDY    65  45  48 W7        29.94R
MADISON        CLOUDY    64  45  48 CALM      29.94F
MITCHELL       CLOUDY    68  47  46 W6        29.95S
SIOUX FALLS    CLOUDY    63  54  72 SW8       29.95F
WINNER         CLOUDY    63  53  70 SW9       29.99F
YANKTON        CLOUDY    62  52  69 NW8       29.96F
$$

MNZ071-072-080-081-089-090-097-098-272000-
SOUTHWEST MINNESOTA

CITY           SKY/WX    TMP DP  RH WIND       PRES   REMARKS
FAIRMONT       CLOUDY    65  46  50 CALM      29.94F
JACKSON        CLOUDY    63  50  63 CALM      29.95F
LUVERNE        CLOUDY    61  50  67 SW8       29.97S
MARSHALL       CLOUDY    70  46  42 SW8       29.91F
MONTEVIDEO     CLOUDY    75  48  38 W6        29.89F
PIPESTONE      CLOUDY    66  43  42 N7        29.93F
REDWOOD FALLS  CLOUDY    70  37  29 S5        29.91F
TRACY          CLOUDY    69  50  50 W6        29.92F
WINDOM         CLOUDY    63  52  67 S10       29.94F
WORTHINGTON    CLOUDY    62  49  62 SW10      29.96F
$$

IAZ001>003-012>014-020>022-031-032-NEZ013-014-SDZ071-272000-
NORTHWEST IOWA

CITY           SKY/WX    TMP DP  RH WIND       PRES   REMARKS
CHEROKEE       CLOUDY    67  53  62 NE8       29.92S
DENISON        CLOUDY    64  54  68 NE10      29.89F
ESTHERVILLE    CLOUDY    63  51  65 N5        29.94F
LE MARS        CLOUDY    66  50  55 N10       29.94F
ORANGE CITY    PTSUNNY   61  54  77 N6        29.95F
SHELDON        CLOUDY    61  54  77 NW8       29.94F
SIOUX CITY     MOSUNNY   73  52  47 N12       29.90F
SPENCER        CLOUDY    65  52  62 E3        29.94F
STORM LAKE     CLOUDY    64  50  59 NE12      29.92F
$$

ABBREVIATIONS USED IN REMARKS
   TC - TEMPERATURE IN CELSIUS
  WCI - WIND CHILL INDEX
   HX - HEAT INDEX
  VSB - VISIBILITY





USA.gov is the U.S. government's official web portal to all federal, state and local government web resources and services.